OpenBCM V2.0.2 (Linux)

Packet Radio Mailbox

IZ3LSV

[San Dona' di P. JN]

 Login: GUEST





  
LU9DCE > KEPS     27.03.18 18:02l 274 Lines 13355 Bytes #999 (0) @ WW
BID : 35273_LU9DCE
Read: GUEST
Subj: SAT TLE OF 27
Path: IZ3LSV<IW8PGT<CX2SA<HP2BWJ<LU4ECL<LU9DCE
Sent: 180327/1601Z @:LU9DCE.TOR.BA.ARG.SOAM #:35273 [TORTUGUITAS] FBB7.07
From: LU9DCE@LU9DCE.TOR.BA.ARG.SOAM
To  : KEPS@WW


            __    _  _  ___  ____   ___  ____    ____  ____  ____
           (  )  / )( \/ _ \(    \ / __)(  __)  (  _ \(  _ \/ ___)
           / (_/\) \/ (\__  )) D (( (__  ) _)    ) _ ( ) _ (\___ \
           \____/\____/(___/(____/ \___)(____)  (____/(____/(____/
               ESTACION DE PACKET RADIO - BUENOS AIRES (GF05OM)
                   BOLETINES INFORMATIVOS PROGRAMADOS (BIP)
                    LU9DCE@GMX.COM - RF 147070 @ 1200 BAUD
                           telnet lu9dce.dynu.com
             BBS port 6300 / NODE port 3694 / DXCLUSTER port 9000

+------------------------------------------------------------------------------+
OSCAR 7
1  7530U 74089B   18085.89697021 -.00000021 +00000-0 +14809-3 0  9996
2  7530 101.6777 054.4826 0012319 133.1806 283.5935 12.53631826984286
OSCAR 11 (UoSAT 2)
1 14781U 84021B   18085.68413475 +.00000100 +00000-0 +18533-4 0  9991
2 14781 097.6599 125.3732 0008414 004.2644 355.8640 14.82989947811213
OSCAR 19 (LUSAT)
1 20442U 90005G   18085.81462016 +.00000006 +00000-0 +18506-4 0  9996
2 20442 098.6037 024.8427 0012509 037.8590 322.3471 14.32890318472030
KITSAT B
1 22825U 93061C   18085.93797776 +.00000001 +00000-0 +18388-4 0  9998
2 22825 098.8544 060.6004 0007629 221.3703 138.6901 14.30025172277545
POSAT 1
1 22826U 93061D   18085.90387916 +.00000019 +00000-0 +24882-4 0  9992
2 22826 098.8485 060.6138 0008296 210.7015 149.3682 14.30356372277743
RADIO ROSTO
1 23439U 94085A   18085.50333358 -.00000038 +00000-0 +13881-3 0  9995
2 23439 064.8140 122.5581 0160043 197.0018 273.8724 11.27566713957249
JAS 2
1 24278U 96046B   18085.85477457 -.00000019 +00000-0 +19182-4 0  9993
2 24278 098.5251 295.9189 0349798 324.6866 033.1547 13.53082557066850
TECHSAT 1B
1 25397U 98043D   18085.80152802 -.00000014 +00000-0 +12996-4 0  9995
2 25397 098.6427 027.6356 0000222 214.9054 145.2111 14.23642212024002
ISS (ZARYA)
1 25544U 98067A   18085.84366080 +.00001815 +00000-0 +34630-4 0  9992
2 25544 051.6419 069.2175 0001450 255.5299 176.9559 15.54129124105715
PCSAT
1 26931U 01043C   18085.50406808 -.00000017 +00000-0 +25255-4 0  9994
2 26931 067.0501 082.7560 0006718 282.9602 077.0749 14.30498318860729
SAUDISAT 1C
1 27607U 02058C   18085.92757838 +.00000030 +00000-0 +25050-4 0  9997
2 27607 064.5566 341.4710 0055692 347.5210 012.4509 14.75432835820693
CUTE-1
1 27844U 03031E   18085.92109836 +.00000062 +00000-0 +47911-4 0  9996
2 27844 098.6892 095.7828 0008731 246.5551 113.4709 14.22101859764460
CUBESAT XI 4
1 27848U 03031J   18085.92794366 +.00000053 +00000-0 +44027-4 0  9993
2 27848 098.6980 096.1594 0008547 258.2818 101.7401 14.21707364764346
MOZHAYETS 4
1 27939U 03042A   18085.90986837 +.00000131 +00000-0 +32055-4 0  9995
2 27939 097.9762 227.2334 0013993 053.7344 059.3050 14.66669090774755
CUBESAT XI 5
1 28895U 05043F   18085.89219179 +.00000160 +00000-0 +39632-4 0  9996
2 28895 097.8963 240.7367 0016039 333.8994 026.1398 14.63523002661607
CUTE-1.7+APD II
1 32785U 08021C   18085.81193174 +.00000278 +00000-0 +35808-4 0  9997
2 32785 097.5515 101.9068 0011939 316.7208 043.3071 14.88083585536859
DELFI C3
1 32789U 08021G   18085.72132217 +.00001289 +00000-0 +92869-4 0  9995
2 32789 097.5215 142.5909 0011775 212.8896 147.1600 15.05850825539271
SEEDS
1 32791U 08021J   18085.63169085 +.00000304 +00000-0 +36553-4 0  9996
2 32791 097.5423 106.9015 0011925 296.3734 063.6259 14.90498110537135
YUBELEINY
1 32953U 08025A   18085.94524231 +.00000035 +00000-0 +18006-3 0  9995
2 32953 082.5013 063.8193 0019953 032.2945 327.9352 12.43082484446556
PRISM (HITOMI)
1 33493U 09002B   18085.77447150 -.00000006 +00000-0 +51487-5 0  9997
2 33493 098.1376 344.6714 0013894 227.7595 132.2462 14.96119336498025
KKS-1 (KISEKI)
1 33499U 09002H   18085.91031145 +.00000167 +00000-0 +32811-4 0  9998
2 33499 098.3527 265.0165 0009019 186.9390 173.1695 14.75307414492625
SWISSCUBE
1 35932U 09051B   18085.91050783 +.00000170 +00000-0 +49489-4 0  9998
2 35932 098.5321 235.1506 0008890 102.4804 257.7388 14.56135064451429
BEESAT
1 35933U 09051C   18085.94365837 +.00000140 +00000-0 +42508-4 0  9993
2 35933 098.5362 236.6792 0007013 113.0009 247.1928 14.56241837451495
ITUPSAT 1
1 35935U 09051E   18085.88328961 +.00000129 +00000-0 +40729-4 0  9995
2 35935 098.5475 236.8714 0009361 109.4436 250.7773 14.55421769451322
XIWANG-1 (HOPE-1)
1 36122U 09072B   18085.92709398 -.00000008 +00000-0 +90413-4 0  9991
2 36122 100.0813 104.3927 0006897 305.6200 054.4271 13.16343857397723
TISAT 1
1 36799U 10035E   18085.89374753 +.00000434 +00000-0 +50263-4 0  9992
2 36799 098.0927 219.9971 0013696 116.7296 243.5325 14.90733392417698
JUGNU
1 37839U 11058B   18085.41695059 +.00000329 +00000-0 +33914-4 0  9994
2 37839 019.9604 179.1496 0019139 054.4201 017.4898 14.12613734333656
SRMSAT
1 37841U 11058D   18085.45263098 +.00000314 +00000-0 +27322-4 0  9995
2 37841 019.9714 226.4314 0011874 302.3790 098.3184 14.10601741333099
M-CUBED/EXP-1 PRIME
1 37855U 11061F   18085.93252792 +.00002345 +00000-0 +12738-3 0  9996
2 37855 101.7245 106.3727 0177173 325.6622 033.3237 15.04212169348814
HORYU 2
1 38340U 12025D   18085.95356506 +.00000228 +00000-0 +41553-4 0  9993
2 38340 098.3722 104.8278 0012859 110.9528 249.3058 14.75518381304575
STRAND 1
1 39090U 13009E   18085.62478914 +.00000038 +00000-0 +28843-4 0  9997
2 39090 098.5301 293.0450 0009210 175.4884 184.6386 14.35016569265965
SOMP
1 39134U 13015E   18085.90672978 +.00001535 +00000-0 +82370-4 0  9998
2 39134 064.8649 033.0252 0021098 220.4218 139.5343 15.18935703272026
BEESAT 3
1 39135U 13015F   18085.79479320 +.00001515 +00000-0 +86907-4 0  9990
2 39135 064.8700 045.6828 0026303 246.4808 113.3554 15.16494920272157
BEESAT 2
1 39136U 13015G   18085.33994774 +.00001469 +00000-0 +85776-4 0  9997
2 39136 064.8700 049.7117 0026850 245.8052 114.0267 15.15969240271648
CUBEBUG 1
1 39153U 13018D   18085.84739142 +.00000243 +00000-0 +38792-4 0  9996
2 39153 097.9767 181.5899 0016370 208.7684 151.2627 14.80360400265408
ZACUBE
1 39417U 13066B   18085.88291551 +.00000283 +00000-0 +41970-4 0  9999
2 39417 097.5962 118.8787 0060524 065.5309 295.2201 14.80897219234615
TRITON 1
1 39427U 13066M   18085.94220840 +.00000197 +00000-0 +39278-4 0  9992
2 39427 097.6396 087.3314 0114590 162.1717 198.3561 14.67626733232328
GOMX 1
1 39430U 13066Q   18085.94091017 +.00000185 +00000-0 +42956-4 0  9992
2 39430 097.6906 068.7758 0150444 229.8509 128.9435 14.59043375230976
HUMSAT D
1 39433U 13066T   18085.87504625 +.00000327 +00000-0 +37641-4 0  9994
2 39433 097.6138 145.0954 0030776 359.6882 000.4313 14.91786636234977
50 SAT
1 39436U 13066W   18085.85588916 +.00159026 +00000-0 +14375-2 0  9998
2 39436 097.7112 215.7867 0002524 202.3201 157.7949 15.67600046240398
CUBEBUG 2
1 39440U 13066AA  18085.95762227 +.00000255 +00000-0 +42314-4 0  9998
2 39440 097.6068 106.0579 0082104 102.4250 258.6164 14.75631639232593
FUNCUBE 1
1 39444U 13066AE  18085.92180370 +.00000331 +00000-0 +47216-4 0  9993
2 39444 097.5973 120.3364 0059618 061.2317 299.4867 14.81665840232885
UWE-3
1 39446U 13066AG  18085.85039344 +.00000266 +00000-0 +41868-4 0  9995
2 39446 097.6003 112.0316 0071819 084.5311 276.4088 14.78165490232361
SPROUT
1 39770U 14029E   18085.81486608 +.00000906 +00000-0 +10793-3 0  9993
2 39770 097.8714 187.5783 0010830 116.7544 243.4738 14.86736806208126
UNISAT 6
1 40012U 14033C   18085.72460122 +.00000223 +00000-0 +40715-4 0  9992
2 40012 097.8206 324.9958 0059869 104.5297 256.2563 14.73782160202558
DUCHIFAT 1
1 40021U 14033M   18085.74139406 +.00000443 +00000-0 +51479-4 0  9995
2 40021 097.9171 004.3118 0014478 089.9065 270.3812 14.90235536204671
QB50P1
1 40025U 14033R   18085.74278452 +.00000310 +00000-0 +39177-4 0  9998
2 40025 097.9076 001.3028 0013970 095.4440 264.8371 14.88662864204012
CHUBUSAT 1
1 40300U 14070C   18085.82224516 +.00000792 +00000-0 +38195-4 0  9999
2 40300 097.3681 165.2659 0019909 186.0696 291.5755 15.21446894187757
NUDT-PHONESAT
1 40900U 15049B   18085.94658568 +.00002816 +00000-0 +13005-3 0  9994
2 40900 097.4433 095.1606 0012380 323.4914 036.5476 15.20966226139410
ZDPS 2A
1 40901U 15049C   18085.95647121 +.00001112 +00000-0 +59713-4 0  9994
2 40901 097.4603 093.5914 0012838 330.0516 029.9982 15.16936204139195
ZDPS 2B
1 40902U 15049D   18085.91914124 +.00001059 +00000-0 +57327-4 0  9990
2 40902 097.4497 091.7137 0012832 327.0070 033.0361 15.16736942139171
XW-2A
1 40903U 15049E   18085.86868610 +.00002658 +00000-0 +68229-4 0  9992
2 40903 097.3942 119.8782 0013367 333.8905 026.1665 15.40168896141133
KAITUO 1A
1 40904U 15049F   18085.78665598 +.00000382 +00000-0 +23973-4 0  9993
2 40904 097.4594 090.9140 0014073 330.6601 153.8842 15.14930215139021
OBJECT G
1 40905U 15049G   18085.92749114 +.00000515 +00000-0 +31997-4 0  9990
2 40905 097.4587 089.2648 0014747 320.2505 039.7645 15.13897751138976
XW-2C
1 40906U 15049H   18085.96331035 +.00000827 +00000-0 +47659-4 0  9992
2 40906 097.4604 090.9677 0013954 320.1421 039.8786 15.15077092139049
XW-2D
1 40907U 15049J   18085.92373229 +.00000894 +00000-0 +51029-4 0  9990
2 40907 097.4578 090.6360 0013268 318.2116 041.8102 15.15219232139042
LILACSAT 2
1 40908U 15049K   18085.96451668 +.00000490 +00000-0 +31012-4 0  9991
2 40908 097.4687 090.1394 0014917 318.4827 041.5270 15.13443307138939
XW-2F
1 40910U 15049M   18085.93554417 +.00001336 +00000-0 +72174-4 0  9991
2 40910 097.4583 091.8144 0013887 313.8269 046.1815 15.16355238139117
XW-2B
1 40911U 15049N   18085.93827495 +.00000873 +00000-0 +50013-4 0  9994
2 40911 097.4614 091.1563 0013189 318.7756 041.2479 15.15166260138947
